Phoenix Deer Valley, AZ

4:26 PM MST on November 15, 2019 (GMT -0700)
Phoenix-Deer Valley Municipal

Weather History for KDVT - September, 2019

Change the Weather History Date:

Tuesday, September 24, 2019

  Actual Average Record
Temperature  
Mean Temperature 76 °F -  
Max Temperature 86 °F 93 °F 102 °F (2002)
Min Temperature 66 °F 71 °F 57 °F (2017)
Cooling Degree Days 11    
Growing Degree Days 26 (Base 50)    
Moisture  
Dew Point 59 °F    
Average Humidity 62    
Maximum Humidity 96    
Minimum Humidity 35    
Precipitation  
Precipitation 0.13 in - - ()
Sea Level Pressure  
Sea Level Pressure 29.87 in    
Wind  
Wind Speed 8 mph ()    
Max Wind Speed 20 mph    
Max Gust Speed 24 mph    
Visibility 10.0 miles    
Events Rain , Thunderstorm    
Averages and records for this station are not official NWS values.
T = Trace of Precipitation, MM = Missing Value Source: Averaged Metar Reports

Daily Weather History Graph

Daily Weather History Graph

Search for Another Location

Airport or City:

Astronomy

Sep. 24, 2019 Rise Set
Actual Time 6:17 AM MST 6:22 PM MST
Civil Twilight 5:52 AM MST 6:47 PM MST
Nautical Twilight 5:23 AM MST 7:16 PM MST
Astronomical Twilight 4:54 AM MST 7:45 PM MST
Moon 1:24 AM MST (9/24) 3:55 PM MST (9/24)
Length of Visible Light 12h 54m
Length of Day
12h 04m
Waning Crescent, 22% of the Moon is Illuminated
Sep 24
Waning Crescent
Sep 28
New
Oct 5
First Quarter
Oct 13
Full
Oct 21
Last Quarter

Hourly Weather History & Observations

Time (MST) Temp. Heat Index Dew Point Humidity Pressure Visibility Wind Dir Wind Speed Gust Speed Precip Events Conditions
12:00 AM 69.1 °F - 62.1 °F 78% 30.01 in 10.0 mi WNW 13.8 mph - 0.00 in Rain , Thunderstorm Light Rain
12:22 AM 68.0 °F - 60.1 °F 76% 30.02 in 9.0 mi NW 12.7 mph - 0.10 in Rain , Thunderstorm Light Thunderstorms and Rain
12:45 AM 66.0 °F - 64.0 °F 93% 30.03 in 10.0 mi NNW 8.1 mph - 0.10 in Rain Light Rain
12:53 AM 66.0 °F - 64.0 °F 93% 29.98 in 10.0 mi North 6.9 mph - 0.10 in Rain Light Rain
1:53 AM 66.0 °F - 64.9 °F 96% 29.93 in 10.0 mi SW 3.5 mph - 0.02 in Rain Light Rain
2:53 AM 66.0 °F - 62.1 °F 87% 29.90 in 10.0 mi East 8.1 mph - 0.01 in Rain Light Rain
3:53 AM 68.0 °F - 60.1 °F 76% 29.88 in 10.0 mi NNW 4.6 mph - 0.00 in   Partly Cloudy
4:53 AM 68.0 °F - 60.1 °F 76% 29.85 in 10.0 mi NE 8.1 mph - N/A   Partly Cloudy
5:53 AM 66.0 °F - 63.0 °F 90% 29.93 in 10.0 mi West 4.6 mph - N/A   Partly Cloudy
6:53 AM 66.0 °F - 63.0 °F 90% 29.93 in 10.0 mi Calm Calm - N/A   Partly Cloudy
7:53 AM 68.0 °F - 62.1 °F 81% 29.93 in 10.0 mi WNW 5.8 mph - N/A   Clear
8:53 AM 70.0 °F - 62.1 °F 76% 29.92 in 10.0 mi SE 5.8 mph - N/A   Clear
9:53 AM 73.9 °F - 61.0 °F 64% 29.90 in 10.0 mi East 11.5 mph - N/A   Clear
10:53 AM 78.1 °F - 57.0 °F 48% 29.90 in 10.0 mi East 10.4 mph 19.6 mph N/A   Clear
11:53 AM 81.0 °F 81.0 °F 57.0 °F 44% 29.88 in 10.0 mi ESE 6.9 mph - N/A   Clear
12:53 PM 82.9 °F 82.1 °F 55.9 °F 39% 29.84 in 10.0 mi ESE 4.6 mph - N/A   Clear
1:53 PM 86.0 °F 84.7 °F 55.9 °F 36% 29.81 in 10.0 mi ESE 12.7 mph 18.4 mph N/A   Clear
2:53 PM 86.0 °F 84.5 °F 55.0 °F 35% 29.79 in 10.0 mi SE 19.6 mph 24.2 mph N/A   Clear
3:53 PM 84.9 °F 83.6 °F 55.0 °F 36% 29.79 in 10.0 mi South 11.5 mph - N/A   Clear
4:53 PM 84.9 °F 83.6 °F 55.0 °F 36% 29.78 in 10.0 mi ESE 12.7 mph - N/A   Clear
5:53 PM 84.0 °F 82.6 °F 54.0 °F 35% 29.78 in 10.0 mi ESE 8.1 mph - N/A   Clear
6:53 PM 82.0 °F 81.3 °F 54.0 °F 38% 29.78 in 10.0 mi ESE 6.9 mph - N/A   Clear
7:53 PM 79.0 °F - 57.0 °F 47% 29.80 in 10.0 mi SE 3.5 mph - N/A   Clear
8:53 PM 79.0 °F - 55.0 °F 44% 29.80 in 10.0 mi SE 5.8 mph - N/A   Clear
9:53 PM 78.1 °F - 55.9 °F 46% 29.80 in 10.0 mi Variable 3.5 mph - N/A   Clear
10:53 PM 73.9 °F - 59.0 °F 59% 29.79 in 10.0 mi NNE 6.9 mph - N/A   Clear
11:53 PM 73.0 °F - 60.1 °F 64% 29.79 in 10.0 mi Variable 3.5 mph - N/A   Clear